When you browse on this site, cookies collect data to enhance your experience and personalize the content and advertising you see.
Visit our Privacy Policy to learn more. By continuing to use the site, you agree to this use of cookies and data.
  • In Austria
  • List of Countries
  • For 7 days
  • Water Temperature
  • Satellite Maps
  • Weather Map
  • News
  • Weather Widgets
  • user-avatar
    Login

    Hourly Weather Yuhanovo

    Today, 20 February, Wednesday

    Time Temperature Precipitation Wind Pressure Humidity
    00:00 0°C° 0.1 mm 4 mps 739 mmHg 91%
    01:00 0°C° 0.1 mm 4 mps 739 mmHg 91%
    02:00 +1°C° 0 mm 5 mps 738 mmHg 92%
    03:00 +1°C° 0.1 mm 4 mps 738 mmHg 92%
    04:00 0°C° 0.1 mm 4 mps 738 mmHg 92%
    05:00 0°C° 0.1 mm 4 mps 738 mmHg 92%
    06:00 0°C° 0.1 mm 4 mps 738 mmHg 91%
    07:00 0°C° 0.1 mm 4 mps 738 mmHg 91%
    08:00 0°C° 0.1 mm 4 mps 738 mmHg 90%
    09:00 +1°C° 0.1 mm 5 mps 737 mmHg 89%
    10:00 +1°C° 0.1 mm 5 mps 737 mmHg 88%
    11:00 +1°C° 0.1 mm 5 mps 737 mmHg 87%
    12:00 +1°C° 0.2 mm 5 mps 737 mmHg 86%
    13:00 +1°C° 0.2 mm 5 mps 736 mmHg 85%
    14:00 +1°C° 0.2 mm 5 mps 736 mmHg 85%
    15:00 +1°C° 0.5 mm 5 mps 736 mmHg 85%
    16:00 +1°C° 0.5 mm 5 mps 736 mmHg 86%
    17:00 +1°C° 0.5 mm 5 mps 735 mmHg 86%
    18:00 -1°C° 0.3 mm 5 mps 736 mmHg 83%
    19:00 -2°C° 0.3 mm 5 mps 736 mmHg 79%
    20:00 -4°C° 0.3 mm 5 mps 736 mmHg 76%
    21:00 -4°C° 0.2 mm 6 mps 737 mmHg 76%
    22:00 -5°C° 0.2 mm 6 mps 738 mmHg 76%
    23:00 -5°C° 0.2 mm 6 mps 739 mmHg 76%

    Tomorrow, 21 February, Thursday

    Time Temperature Precipitation Wind Pressure Humidity
    00:00 -6°C° 0.1 mm 6 mps 739 mmHg 76%
    01:00 -6°C° 0.1 mm 6 mps 740 mmHg 75%
    02:00 -8°C° 0.1 mm 6 mps 740 mmHg 74%
    03:00 -8°C° 0.1 mm 7 mps 740 mmHg 74%
    04:00 -8°C° 0.1 mm 7 mps 741 mmHg 74%
    05:00 -9°C° 0.1 mm 7 mps 741 mmHg 74%
    06:00 -9°C° 0.2 mm 7 mps 742 mmHg 75%
    07:00 -9°C° 0.2 mm 7 mps 742 mmHg 75%
    08:00 -9°C° 0.2 mm 7 mps 743 mmHg 76%
    09:00 -8°C° 0.1 mm 7 mps 744 mmHg 74%
    10:00 -8°C° 0.1 mm 7 mps 745 mmHg 72%
    11:00 -8°C° 0.1 mm 7 mps 745 mmHg 69%
    12:00 -8°C° 0 mm 7 mps 746 mmHg 68%
    13:00 -8°C° 0 mm 6 mps 747 mmHg 67%
    14:00 -8°C° 0 mm 6 mps 748 mmHg 66%
    15:00 -9°C° 0 mm 6 mps 749 mmHg 66%
    16:00 -9°C° 0 mm 6 mps 749 mmHg 67%
    17:00 -10°C° 0 mm 5 mps 750 mmHg 68%
    18:00 -10°C° 0 mm 5 mps 751 mmHg 68%
    19:00 -11°C° 0 mm 5 mps 751 mmHg 69%
    20:00 -11°C° 0 mm 5 mps 752 mmHg 69%
    21:00 -11°C° 0 mm 5 mps 753 mmHg 70%
    22:00 -11°C° 0 mm 4 mps 753 mmHg 70%
    23:00 -11°C° 0 mm 4 mps 754 mmHg 70%

    Day after tomorrow, 22 February, Friday

    Time Temperature Precipitation Wind Pressure Humidity
    00:00 -11°C° 0 mm 4 mps 754 mmHg 71%
    01:00 -12°C° 0 mm 4 mps 755 mmHg 72%
    02:00 -12°C° 0 mm 4 mps 755 mmHg 72%
    03:00 -12°C° 0 mm 4 mps 756 mmHg 72%
    04:00 -14°C° 0 mm 4 mps 756 mmHg 73%
    05:00 -14°C° 0 mm 4 mps 756 mmHg 73%
    06:00 -14°C° 0 mm 5 mps 757 mmHg 73%
    07:00 -14°C° 0 mm 5 mps 758 mmHg 73%
    08:00 -13°C° 0 mm 5 mps 758 mmHg 74%
    09:00 -13°C° 0 mm 5 mps 758 mmHg 71%
    10:00 -12°C° 0 mm 6 mps 759 mmHg 68%
    11:00 -11°C° 0 mm 6 mps 759 mmHg 66%
    12:00 -11°C° 0 mm 6 mps 759 mmHg 62%
    13:00 -10°C° 0 mm 6 mps 759 mmHg 59%
    14:00 -11°C° 0 mm 7 mps 760 mmHg 56%
    15:00 -10°C° 0 mm 6 mps 760 mmHg 60%
    16:00 -10°C° 0 mm 6 mps 760 mmHg 64%
    17:00 -11°C° 0 mm 6 mps 761 mmHg 68%
    18:00 -11°C° 0.1 mm 6 mps 761 mmHg 69%
    19:00 -11°C° 0.1 mm 6 mps 762 mmHg 70%
    20:00 -11°C° 0.1 mm 5 mps 762 mmHg 71%
    21:00 -12°C° 0 mm 5 mps 763 mmHg 72%
    22:00 -11°C° 0 mm 4 mps 763 mmHg 73%
    23:00 -12°C° 0 mm 4 mps 763 mmHg 74%

    23 February, Saturday

    Time Temperature Precipitation Wind Pressure Humidity
    00:00 -12°C° 0 mm 4 mps 764 mmHg 76%
    01:00 -12°C° 0 mm 4 mps 764 mmHg 78%
    02:00 -14°C° 0 mm 4 mps 765 mmHg 81%
    03:00 -13°C° 0 mm 3 mps 765 mmHg 82%
    04:00 -13°C° 0 mm 3 mps 765 mmHg 83%
    05:00 -14°C° 0 mm 3 mps 765 mmHg 85%
    06:00 -14°C° 0 mm 3 mps 765 mmHg 85%
    07:00 -14°C° 0 mm 3 mps 765 mmHg 85%
    08:00 -14°C° 0 mm 3 mps 766 mmHg 86%
    09:00 -13°C° 0 mm 3 mps 766 mmHg 80%
    10:00 -12°C° 0 mm 3 mps 766 mmHg 75%
    11:00 -9°C° 0 mm 2 mps 766 mmHg 69%
    12:00 -8°C° 0 mm 2 mps 765 mmHg 67%
    13:00 -8°C° 0 mm 2 mps 765 mmHg 65%
    14:00 -7°C° 0 mm 2 mps 765 mmHg 62%
    15:00 -7°C° 0 mm 2 mps 764 mmHg 64%
    16:00 -7°C° 0 mm 2 mps 764 mmHg 66%
    17:00 -7°C° 0 mm 2 mps 764 mmHg 68%
    18:00 -7°C° 0 mm 2 mps 764 mmHg 70%
    19:00 -7°C° 0 mm 2 mps 763 mmHg 73%
    20:00 -7°C° 0 mm 2 mps 763 mmHg 75%
    21:00 -7°C° 0.1 mm 2 mps 763 mmHg 79%
    22:00 -7°C° 0.1 mm 2 mps 762 mmHg 84%
    23:00 -8°C° 0.1 mm 3 mps 762 mmHg 88%

    24 February, Sunday

    Time Temperature Precipitation Wind Pressure Humidity
    00:00 -6°C° 0.1 mm 2 mps 761 mmHg 89%
    01:00 -6°C° 0.1 mm 2 mps 761 mmHg 90%
    02:00 -6°C° 0.1 mm 2 mps 761 mmHg 90%
    03:00 -6°C° 0.1 mm 2 mps 761 mmHg 91%
    04:00 -5°C° 0.1 mm 2 mps 760 mmHg 92%
    05:00 -3°C° 0.1 mm 1 mps 760 mmHg 93%
    06:00 -3°C° 0.1 mm 1 mps 760 mmHg 94%
    07:00 -3°C° 0.1 mm 1 mps 760 mmHg 95%
    08:00 -2°C° 0.1 mm 1 mps 761 mmHg 95%
    09:00 -2°C° 0 mm 1 mps 761 mmHg 94%
    10:00 -1°C° 0 mm 1 mps 761 mmHg 92%
    11:00 0°C° 0 mm 1 mps 761 mmHg 91%
    12:00 +1°C° 0 mm 1 mps 761 mmHg 90%
    13:00 0°C° 0 mm 0 mps 761 mmHg 90%
    14:00 +1°C° 0 mm 0 mps 761 mmHg 90%
    15:00 0°C° 0 mm 0 mps 761 mmHg 91%
    16:00 0°C° 0 mm 0 mps 761 mmHg 93%
    17:00 +1°C° 0 mm 1 mps 761 mmHg 95%
    18:00 0°C° 0 mm 1 mps 761 mmHg 95%
    19:00 0°C° 0 mm 1 mps 761 mmHg 95%
    20:00 0°C° 0 mm 1 mps 761 mmHg 95%
    21:00 0°C° 0 mm 1 mps 761 mmHg 94%
    22:00 0°C° 0 mm 1 mps 761 mmHg 93%
    23:00 -2°C° 0 mm 2 mps 761 mmHg 92%

    25 February, Monday

    Time Temperature Precipitation Wind Pressure Humidity
    00:00 -2°C° 0 mm 2 mps 760 mmHg 92%
    01:00 -2°C° 0 mm 2 mps 760 mmHg 91%
    02:00 -2°C° 0 mm 2 mps 760 mmHg 91%
    03:00 -2°C° 0 mm 2 mps 759 mmHg 91%
    04:00 -2°C° 0 mm 2 mps 759 mmHg 92%
    05:00 -2°C° 0 mm 3 mps 758 mmHg 92%
    06:00 -1°C° 0 mm 3 mps 758 mmHg 93%
    07:00 -1°C° 0 mm 3 mps 757 mmHg 94%
    08:00 -1°C° 0 mm 3 mps 757 mmHg 95%
    09:00 0°C° 0 mm 3 mps 757 mmHg 93%
    10:00 0°C° 0 mm 3 mps 757 mmHg 91%
    11:00 0°C° 0 mm 4 mps 756 mmHg 89%
    12:00 0°C° 0 mm 4 mps 756 mmHg 87%
    13:00 -1°C° 0 mm 4 mps 756 mmHg 85%
    14:00 -1°C° 0 mm 4 mps 756 mmHg 84%
    15:00 -1°C° 0.1 mm 4 mps 756 mmHg 84%
    16:00 0°C° 0.1 mm 3 mps 756 mmHg 84%
    17:00 0°C° 0.1 mm 3 mps 756 mmHg 84%
    18:00 -1°C° 0 mm 3 mps 756 mmHg 85%
    19:00 -1°C° 0 mm 3 mps 756 mmHg 86%
    20:00 -1°C° 0 mm 3 mps 756 mmHg 87%
    21:00 -1°C° 0 mm 3 mps 756 mmHg 88%
    22:00 -2°C° 0 mm 3 mps 755 mmHg 89%
    23:00 -2°C° 0 mm 2 mps 755 mmHg 90%
    Show more